Volver al catálogo

STARLINK-2417

ActivoComunicacionesVLEO
NORAD 48096·PAYLOAD·🇺🇸 United States

Lanzado Apr 7, 2021 desde Cape Canaveral Space Force Station

Loading…

Próximos Pases (próximas 24 horas)

TLE

ActualizadoSource: CelesTrak SupGP

Época: Sep 14, 2026, 20:32 UTC

1 48096C 21027E   26257.85604167 -.00001272  00000+0 -40904-4 0  2579
2 48096  53.1590   5.2731 0001086  83.2114 240.5103 15.31709490    19

Sigue STARLINK-2417 en tiempo real con AllMySat

Download on the App Store